Main page
METAR-TAF:

METAR-TAF

Airports :

Davenport Municipal Airport

Davenport, Iowa, United States

latitude: 41-36-50N, longitude: 090-35-29W, elevation: 751 ft

Current weather observation

The report was made 44 minutes ago, at 18:10 UTC
Calm wind
Temperature 75°F
Humidity 78%
Pressure 30.15 in. Hg
Visibility: 10 miles
Broken clouds at a height of 1900 ft

METAR: KDVN 241810Z AUTO 00000KT 10SM BKN019 24/20 A3015 RMK AO2 T02440200

Time: 13:54 (18:54 UTC)


TAF: missing

Weather observations and forecasts of more than 4000 airports (METAR and TAF reports).

The available stations are represented by yellow and red dots on the map.

Hover mouse over dot to see the name of the station.

Then click to see weather observations and forecasts.

To change the map : click on the green buttons with a black cross to zoom in, on the green button with a dash to zoom out, or on the green arrows for adjacent maps.


METAR-TAF: